When you browse on this site, cookies collect data to enhance your experience and personalize the content and advertising you see.
Visit our Privacy Policy to learn more. By continuing to use the site, you agree to this use of cookies and data.
  • In Österreich
  • Länderverzeichnis
  • Für 7 Tage
  • Wassertemperatur
  • Satellitenkarten
  • Wetterkarte
  • News
  • Widgets
  • user-avatar
    Anmelden

    Stündliche Wetter Benguela

    Heute, 16 Juli, Dienstag

    Zeit Temperatur Niederschläge Wind Luftdruck Luftfeuchtigkeit
    00:00 +22°C° 0 mm 1 m/S 760 mmHg 90%
    01:00 +21°C° 0 mm 1 m/S 760 mmHg 95%
    02:00 +21°C° 0 mm 1 m/S 760 mmHg 94%
    03:00 +21°C° 0 mm 1 m/S 760 mmHg 92%
    04:00 +22°C° 0 mm 1 m/S 759 mmHg 91%
    05:00 +22°C° 0 mm 1 m/S 760 mmHg 88%
    06:00 +22°C° 0 mm 1 m/S 760 mmHg 85%
    07:00 +22°C° 0 mm 1 m/S 760 mmHg 78%
    08:00 +24°C° 0 mm 1 m/S 760 mmHg 68%
    09:00 +27°C° 0 mm 1 m/S 761 mmHg 58%
    10:00 +29°C° 0 mm 2 m/S 761 mmHg 48%
    11:00 +30°C° 0 mm 2 m/S 760 mmHg 48%
    12:00 +31°C° 0 mm 3 m/S 759 mmHg 48%
    13:00 +33°C° 0 mm 3 m/S 759 mmHg 48%
    14:00 +31°C° 0 mm 3 m/S 758 mmHg 51%
    15:00 +30°C° 0 mm 3 m/S 758 mmHg 54%
    16:00 +29°C° 0 mm 3 m/S 757 mmHg 57%
    17:00 +27°C° 0 mm 3 m/S 758 mmHg 68%
    18:00 +24°C° 0 mm 2 m/S 758 mmHg 80%
    19:00 +21°C° 0 mm 2 m/S 759 mmHg 91%
    20:00 +21°C° 0 mm 2 m/S 759 mmHg 90%
    21:00 +20°C° 0 mm 2 m/S 760 mmHg 90%
    22:00 +21°C° 0 mm 1 m/S 760 mmHg 89%
    23:00 +21°C° 0 mm 1 m/S 760 mmHg 84%

    Morgen, 17 Juli, Mittwoch

    Zeit Temperatur Niederschläge Wind Luftdruck Luftfeuchtigkeit
    00:00 +22°C° 0 mm 1 m/S 760 mmHg 80%
    01:00 +22°C° 0 mm 1 m/S 760 mmHg 75%
    02:00 +21°C° 0 mm 1 m/S 760 mmHg 77%
    03:00 +21°C° 0 mm 1 m/S 759 mmHg 78%
    04:00 +20°C° 0 mm 1 m/S 759 mmHg 80%
    05:00 +20°C° 0 mm 1 m/S 760 mmHg 79%
    06:00 +20°C° 0 mm 1 m/S 760 mmHg 78%
    07:00 +18°C° 0 mm 0 m/S 761 mmHg 77%
    08:00 +23°C° 0 mm 1 m/S 761 mmHg 64%
    09:00 +26°C° 0 mm 2 m/S 761 mmHg 51%
    10:00 +30°C° 0 mm 3 m/S 761 mmHg 38%
    11:00 +30°C° 0 mm 3 m/S 760 mmHg 44%
    12:00 +29°C° 0 mm 4 m/S 760 mmHg 50%
    13:00 +29°C° 0 mm 4 m/S 759 mmHg 56%
    14:00 +29°C° 0 mm 4 m/S 759 mmHg 59%
    15:00 +28°C° 0 mm 3 m/S 758 mmHg 61%
    16:00 +27°C° 0 mm 2 m/S 758 mmHg 64%
    17:00 +25°C° 0 mm 2 m/S 759 mmHg 74%
    18:00 +23°C° 0 mm 1 m/S 759 mmHg 84%
    19:00 +19°C° 0 mm 0 m/S 760 mmHg 94%
    20:00 +21°C° 0 mm 1 m/S 760 mmHg 93%
    21:00 +21°C° 0 mm 1 m/S 760 mmHg 91%
    22:00 +20°C° 0 mm 2 m/S 761 mmHg 90%
    23:00 +21°C° 0 mm 1 m/S 760 mmHg 88%

    übermorgen, 18 Juli, Donnerstag

    Zeit Temperatur Niederschläge Wind Luftdruck Luftfeuchtigkeit
    00:00 +20°C° 0 mm 1 m/S 760 mmHg 85%
    01:00 +20°C° 0 mm 1 m/S 760 mmHg 83%
    02:00 +20°C° 0 mm 1 m/S 760 mmHg 81%
    03:00 +19°C° 0 mm 2 m/S 759 mmHg 78%
    04:00 +20°C° 0 mm 2 m/S 759 mmHg 76%
    05:00 +20°C° 0 mm 2 m/S 759 mmHg 73%
    06:00 +21°C° 0 mm 1 m/S 760 mmHg 69%
    07:00 +21°C° 0 mm 1 m/S 760 mmHg 65%
    08:00 +24°C° 0 mm 1 m/S 760 mmHg 56%
    09:00 +27°C° 0 mm 2 m/S 760 mmHg 47%
    10:00 +30°C° 0 mm 2 m/S 760 mmHg 38%
    11:00 +31°C° 0 mm 2 m/S 759 mmHg 38%
    12:00 +33°C° 0 mm 3 m/S 758 mmHg 39%
    13:00 +34°C° 0 mm 4 m/S 758 mmHg 39%
    14:00 +33°C° 0 mm 3 m/S 757 mmHg 43%
    15:00 +31°C° 0 mm 3 m/S 757 mmHg 47%
    16:00 +29°C° 0 mm 3 m/S 756 mmHg 51%
    17:00 +27°C° 0 mm 2 m/S 757 mmHg 65%
    18:00 +24°C° 0 mm 1 m/S 758 mmHg 78%
    19:00 +19°C° 0 mm 0 m/S 758 mmHg 92%
    20:00 +21°C° 0 mm 1 m/S 759 mmHg 92%
    21:00 +21°C° 0 mm 1 m/S 759 mmHg 92%
    22:00 +21°C° 0 mm 1 m/S 759 mmHg 92%
    23:00 +20°C° 0 mm 1 m/S 759 mmHg 91%

    19 Juli, Freitag

    Zeit Temperatur Niederschläge Wind Luftdruck Luftfeuchtigkeit
    00:00 +18°C° 0 mm 0 m/S 759 mmHg 90%
    01:00 +18°C° 0 mm 0 m/S 759 mmHg 89%
    02:00 +20°C° 0 mm 1 m/S 759 mmHg 91%
    03:00 +20°C° 0 mm 1 m/S 759 mmHg 92%
    04:00 +19°C° 0 mm 2 m/S 759 mmHg 94%
    05:00 +19°C° 0 mm 2 m/S 759 mmHg 92%
    06:00 +19°C° 0 mm 2 m/S 760 mmHg 91%
    07:00 +19°C° 0 mm 2 m/S 760 mmHg 89%
    08:00 +22°C° 0 mm 3 m/S 760 mmHg 79%
    09:00 +25°C° 0 mm 3 m/S 760 mmHg 68%
    10:00 +27°C° 0 mm 3 m/S 760 mmHg 57%
    11:00 +28°C° 0 mm 3 m/S 759 mmHg 56%
    12:00 +29°C° 0 mm 3 m/S 758 mmHg 54%
    13:00 +30°C° 0 mm 4 m/S 758 mmHg 52%
    14:00 +29°C° 0 mm 3 m/S 757 mmHg 55%
    15:00 +28°C° 0 mm 3 m/S 757 mmHg 58%
    16:00 +27°C° 0 mm 3 m/S 756 mmHg 60%
    17:00 +25°C° 0 mm 2 m/S 757 mmHg 71%
    18:00 +23°C° 0 mm 1 m/S 758 mmHg 82%
    19:00 +19°C° 0 mm 0 m/S 759 mmHg 93%
    20:00 +21°C° 0 mm 1 m/S 759 mmHg 93%
    21:00 +21°C° 0 mm 1 m/S 760 mmHg 93%
    22:00 +20°C° 0 mm 1 m/S 760 mmHg 93%
    23:00 +20°C° 0 mm 1 m/S 760 mmHg 93%

    20 Juli, Samstag

    Zeit Temperatur Niederschläge Wind Luftdruck Luftfeuchtigkeit
    00:00 +18°C° 0 mm 0 m/S 760 mmHg 92%
    01:00 +17°C° 0 mm 0 m/S 760 mmHg 91%
    02:00 +17°C° 0 mm 0 m/S 760 mmHg 92%
    03:00 +17°C° 0 mm 0 m/S 760 mmHg 92%
    04:00 +19°C° 0 mm 1 m/S 760 mmHg 93%
    05:00 +19°C° 0 mm 1 m/S 760 mmHg 92%
    06:00 +19°C° 0 mm 2 m/S 761 mmHg 92%
    07:00 +19°C° 0 mm 2 m/S 761 mmHg 92%
    08:00 +21°C° 0 mm 2 m/S 761 mmHg 82%
    09:00 +24°C° 0 mm 3 m/S 761 mmHg 73%
    10:00 +27°C° 0 mm 3 m/S 761 mmHg 63%
    11:00 +28°C° 0 mm 3 m/S 760 mmHg 59%
    12:00 +29°C° 0 mm 3 m/S 760 mmHg 56%
    13:00 +29°C° 0 mm 3 m/S 759 mmHg 52%
    14:00 +29°C° 0 mm 3 m/S 759 mmHg 56%
    15:00 +28°C° 0 mm 3 m/S 758 mmHg 59%
    16:00 +27°C° 0 mm 3 m/S 758 mmHg 62%
    17:00 +25°C° 0 mm 2 m/S 759 mmHg 73%
    18:00 +23°C° 0 mm 1 m/S 759 mmHg 83%
    19:00 +19°C° 0 mm 0 m/S 760 mmHg 94%
    20:00 +21°C° 0 mm 1 m/S 760 mmHg 93%
    21:00 +21°C° 0 mm 1 m/S 761 mmHg 93%
    22:00 +20°C° 0 mm 2 m/S 761 mmHg 92%
    23:00 +21°C° 0 mm 1 m/S 761 mmHg 92%

    21 Juli, Sonntag

    Zeit Temperatur Niederschläge Wind Luftdruck Luftfeuchtigkeit
    00:00 +20°C° 0 mm 1 m/S 761 mmHg 92%
    01:00 +18°C° 0 mm 0 m/S 761 mmHg 92%
    02:00 +20°C° 0 mm 1 m/S 761 mmHg 92%
    03:00 +19°C° 0 mm 1 m/S 761 mmHg 92%
    04:00 +19°C° 0 mm 1 m/S 761 mmHg 92%
    05:00 +19°C° 0 mm 1 m/S 761 mmHg 90%
    06:00 +20°C° 0 mm 1 m/S 762 mmHg 89%
    07:00 +19°C° 0 mm 2 m/S 762 mmHg 88%
    08:00 +23°C° 0 mm 2 m/S 762 mmHg 77%
    09:00 +25°C° 0 mm 1 m/S 762 mmHg 66%
    10:00 +28°C° 0 mm 1 m/S 762 mmHg 55%
    11:00 +29°C° 0 mm 2 m/S 761 mmHg 52%
    12:00 +30°C° 0 mm 3 m/S 760 mmHg 50%
    13:00 +32°C° 0 mm 4 m/S 759 mmHg 47%
    14:00 +30°C° 0 mm 3 m/S 759 mmHg 51%
    15:00 +29°C° 0 mm 3 m/S 759 mmHg 54%
    16:00 +28°C° 0 mm 3 m/S 758 mmHg 58%
    17:00 +26°C° 0 mm 3 m/S 759 mmHg 68%
    18:00 +24°C° 0 mm 2 m/S 760 mmHg 79%
    19:00 +22°C° 0 mm 1 m/S 760 mmHg 89%
    20:00 +21°C° 0 mm 1 m/S 761 mmHg 91%
    21:00 +21°C° 0 mm 1 m/S 761 mmHg 92%
    22:00 +20°C° 0 mm 1 m/S 762 mmHg 94%
    23:00 +20°C° 0 mm 1 m/S 761 mmHg 94%
    Mehr zeigen